Flag for Philippines Weather past 2 weeks in Makati, Philippines

Now
75 °F

Passing clouds.


Feels Like: 77 °F
Forecast: 74 / 83 °F
Wind: 5 mph from East

Location: National Airport

Current Time: Feb 1, 2015 at 11:33:49 PM

Latest Report: Feb 1, 2015 at 11:00 PM


Visibility: N/A

Pressure: 30.07 "Hg

Humidity: 65%

Dew point: 63 °F

Location of MakatiLocation

Historic Weather in Makati — Graph

°F

Makati temperature yesterday

Maximum temperature yesterday: 86 °F (at 12:00 PM)
Minimum temperature yesterday: 73 °F (at 3:00 AM)
Average temperature yesterday: 79 °F

Past Weeks' High & Low Weather Summary

 TemperatureHumidityPressure
High88 °F (Jan 28, 4:00 PM)100% (Jan 18, 5:00 PM)30.07 "Hg (Jan 18, 5:00 PM)
Low68 °F (Jan 19, 6:00 AM)22% (Jan 22, 11:00 PM)29.80 "Hg (Jan 18, 4:00 PM)
Average78 °F74%29.95 "Hg
* Reported Jan 17 10:00 PM — Feb 1 10:00 PM, Makati, Weather by CustomWeather, © 2014

Note: Actual official high and low records may vary slightly from our data, if they occured in-between our weather recording intervals... More about our weather records

Advertising

Makati weather history for previous 24 hours

 ConditionsComfort  
Time TempWeatherWind HumidityBarometerVisibility
10:00 PM
Feb 1
75 °FPassing clouds.5 mph65%30.07 "HgN/A
9:00 PM77 °FPassing clouds.6 mph65%30.07 "HgN/A
8:00 PM77 °FPartly cloudy.8 mph65%30.04 "HgN/A
7:00 PM79 °FPartly cloudy.8 mph61%30.04 "HgN/A
6:00 PM79 °FPartly cloudy.9 mph61%30.01 "HgN/A
5:00 PM81 °FBroken clouds.13 mph58%29.98 "HgN/A
4:00 PM82 °FBroken clouds.12 mph58%29.98 "HgN/A
3:00 PM84 °FBroken clouds.12 mph51%29.98 "HgN/A
2:00 PM84 °FScattered clouds.10 mph51%30.01 "HgN/A
1:00 PM81 °FBroken clouds.16 mph58%30.04 "HgN/A
12:00 PM81 °FBroken clouds.14 mph62%30.04 "HgN/A
11:00 AM81 °FMore clouds than sun.10 mph58%30.04 "HgN/A
10:00 AM82 °FPartly sunny.13 mph55%30.04 "HgN/A
9:00 AM81 °FPartly sunny.7 mph54%30.07 "HgN/A
8:00 AM77 °FPartly sunny.5 mph65%30.04 "HgN/A
7:00 AM77 °FPartly sunny.8 mph65%30.01 "HgN/A
6:00 AM73 °FPartly cloudy.1 mph78%30.01 "HgN/A
5:00 AM73 °FPassing clouds.5 mph78%30.01 "HgN/A
4:00 AM72 °FPassing clouds.5 mph83%30.01 "HgN/A
3:00 AM73 °FPassing clouds.7 mph78%30.01 "HgN/A
2:00 AM77 °FPassing clouds.10 mph65%30.01 "HgN/A
1:00 AM77 °FPassing clouds.9 mph65%30.01 "HgN/A
12:00 AM77 °FPassing clouds.9 mph65%30.01 "HgN/A
11:00 PM
Jan 31
77 °FPassing clouds.8 mph69%30.04 "HgN/A
Weather by CustomWeather, © 2014

See weather overviewHow to use our weather pages